#timestamp,LO_Frequency,Hit,StdDev 
1508965215.6,286047004.4,Y
1508965235.4,286047002.5,P
1508965255.3,286047002.5,N
1508965275.1,286047002.5,N
1508965295.8,286047004.3,Y
1508965315.7,286047000.1,P
1508965335.5,286047002.3,N
1508965355.4,286047000.6,N
1508965375.2,286047001.1,N
1508965395.0,286047000.4,N
1508965395.9,286047000.4,N
1508965415.8,286047000.0,N
1508965435.6,286047002.2,N
1508965455.5,286047002.7,Y
1508965475.3,286047001.5,P
1508965495.1,286047001.2,P
1508965515.9,286047001.1,P
1508965535.7,286046998.7,Y
1508965555.6,286046997.0,P
1508965575.4,286046997.1,N
1508965595.2,286046996.5,N
1508965615.1,286046997.8,N
1508965616.0,286046997.8,N
1508965635.8,286046997.5,N
1508965655.6,286046997.9,N
1508965675.5,286046996.8,N
1508965695.3,286046997.6,N
1508965715.2,286046999.6,N
1508965735.9,286046996.6,N
1508965755.7,286046996.5,N
1508965775.6,286046998.1,N
1508965795.4,286046999.6,N
1508965815.2,286046997.1,N
1508965835.1,286046999.0,N
1508965836.0,286046999.0,N
1508965855.8,286046996.5,N
1508965875.7,286046996.6,N
1508965895.5,286046996.9,N
1508965915.3,286046996.8,N
1508965935.2,286046996.8,N
1508965955.0,286046997.7,N
1508965955.9,286046997.7,N
1508965975.8,286046995.7,Y
1508965995.6,286046999.5,P
1508966015.4,286046998.6,N
1508966035.3,286046998.3,N
1508966055.1,286046998.8,N
1508966075.9,286046996.9,Y
1508966095.7,286047000.3,P
1508966115.5,286047000.5,N
1508966135.4,286047000.8,N
1508966155.2,286047002.3,N
1508966175.0,286047000.2,N
1508966175.9,286047000.2,N
1508966195.8,286046999.9,N
1508966215.6,286047000.9,N
1508966235.5,286047000.5,N
1508966255.3,286047001.7,N
1508966275.1,286047011.9,Y
1508966295.9,286047002.4,P
1508966315.7,286047002.7,N
1508966335.5,286047002.3,N
1508966355.4,286047002.5,N
1508966375.2,286047001.6,N
1508966395.1,286047001.6,N
1508966396.0,286047001.6,N
1508966415.8,286047001.6,N
1508966435.6,286047004.4,Y
1508966455.5,286046999.7,P
1508966475.3,286047001.1,N
1508966495.1,286047002.7,N
1508966515.9,286047001.1,N
1508966535.7,286046998.8,N
1508966555.6,286046998.1,N
1508966575.4,286047001.0,N
1508966595.2,286046999.6,N
1508966615.1,286046996.9,N
1508966616.0,286046996.9,N
1508966635.8,286046999.0,N
1508966655.6,286047001.0,N
1508966675.5,286046998.3,N
1508966695.3,286046998.3,N
1508966715.2,286047000.8,N
1508966735.9,286046998.4,N
1508966755.7,286046997.0,N
1508966775.6,286046997.0,N
1508966795.4,286046996.8,N
1508966815.2,286046997.0,N
1508966835.1,286046999.4,N
1508966836.0,286046999.4,N
1508966855.8,286047001.1,N
1508966875.7,286046998.1,N
1508966895.5,286047001.2,N
1508966915.3,286047000.4,N
1508966935.2,286047001.0,N
1508966955.0,286046998.7,N
1508966955.9,286046998.7,N
1508966975.8,286047000.5,N
1508966995.6,286047000.3,N
1508967015.4,286046998.1,N
1508967035.3,286047000.6,N
1508967055.1,286047001.2,N
1508967075.8,286047000.6,N
1508967095.7,286047000.4,N
1508967115.5,286047000.3,N
1508967135.4,286047000.6,N
1508967155.2,286046998.2,N
1508967175.0,286046998.9,N
1508967175.9,286046998.9,N
1508967195.8,286046999.1,N
1508967215.6,286046999.5,N
1508967235.4,286046999.5,N
1508967255.3,286046999.6,N
1508967275.1,286046998.3,N
1508967295.9,286046999.1,N
1508967315.7,286046998.4,N
1508967335.5,286046996.8,N
1508967355.4,286046997.2,N
1508967375.2,286046996.5,Y
1508967395.1,286046999.6,P
1508967396.0,286046999.6,P
1508967415.8,286046999.6,P
1508967435.6,286046996.9,Y
1508967455.5,286046996.8,P
1508967475.3,286046999.6,N
1508967495.2,286046998.3,N
1508967515.9,286047000.9,N
1508967535.7,286047000.8,N
1508967555.6,286047000.7,N
1508967575.4,286047000.7,N
1508967595.2,286047001.0,N
1508967615.1,286046998.4,N
1508967616.0,286046998.4,N
1508967635.8,286046996.9,N
1508967655.7,286046996.9,N
1508967675.5,286047001.1,N
1508967695.3,286047000.6,N
1508967715.2,286046999.0,N
1508967735.0,286046997.0,N
1508967735.9,286046997.0,N
1508967755.8,286046994.9,Y
1508967775.6,286046996.7,P
1508967795.4,286046997.2,N
1508967815.3,286046996.5,P
1508967835.1,286046997.2,N
1508967855.8,286046995.2,Y
1508967875.7,286046998.4,P
1508967895.5,286046999.2,N
1508967915.4,286046999.2,N
1508967935.2,286046999.0,N
1508967955.0,286046999.1,N
1508967955.9,286046999.1,N
1508967975.8,286046999.3,N
1508967995.6,286046996.6,Y
1508968015.5,286046998.3,P
1508968035.3,286046999.0,P
1508968055.1,286046997.0,P
1508968075.9,286046999.4,N
1508968095.7,286047001.2,N
1508968115.5,286047001.2,N
1508968135.4,286046998.2,N
1508968155.2,286046999.1,N
1508968175.1,286046998.1,N
1508968176.0,286046998.1,N
1508968195.8,286047001.1,N
1508968215.6,286046998.7,N
1508968235.5,286046999.3,N
1508968255.3,286046998.6,N
1508968275.1,286047001.1,N
1508968295.9,286046996.9,N
1508968315.7,286046997.1,N
1508968335.6,286046999.6,N
1508968355.4,286046996.5,N
1508968375.2,286046999.1,N
1508968395.1,286047001.2,N
1508968396.0,286047001.2,N
1508968415.8,286047001.0,N
1508968435.6,286047001.0,N
1508968455.5,286047000.7,N
1508968475.3,286046998.4,N
1508968495.2,286046996.5,N
1508968515.9,286046995.5,N
1508968535.7,286046995.9,N
1508968555.6,286046993.6,Y
1508968575.4,286046996.0,P
1508968595.3,286046996.2,N
1508968615.1,286046996.2,N
1508968616.0,286046996.2,Y
1508968635.8,286046997.3,P
1508968655.7,286046996.9,P
1508968675.5,286046997.0,P
1508968695.4,286046996.8,Y
1508968715.2,286047002.2,P
1508968735.0,286047002.3,N
1508968735.9,286047002.3,N
1508968755.8,286047000.9,N
1508968775.6,286047002.2,N
1508968795.5,286047002.3,N
